Location: High Cliff State Park
(44.1557°N, 88.2948°W)
Time: 04:57:54
(UTC-05:00)

Amateur Radio Satellites - All Passes

Search period start: 27 August 2016 04:27
Search period end: 28 August 2016 04:27
Location: High Cliff State Park, 44.1557°N, 88.2948°W

Satellite Date Start Highest point End Downlink Frequencies (MHz)
Time Altitude Azimuth
STARS 27 Aug 04:32:19 04:36:45 82° 257° (WSW) 04:41:13 437.465
AO-7 27 Aug 04:54:52 05:03:14 81° 108° (ESE) 05:11:32 29.400- 29.500
HORYU 2 27 Aug 05:06:54 05:10:08 20° 93° (E) 05:13:21 437.375
BRITE-PL 27 Aug 05:10:02 05:12:37 13° 86° (E) 05:15:09 437.365/2234.400
CUBESAT XI-V 27 Aug 05:11:51 05:16:27 81° 76° (ENE) 05:21:06 437.345
ITAMSAT 1 27 Aug 05:29:24 05:32:58 19° 300° (WNW) 05:36:32 435.822/435.867
YUBILEINY 27 Aug 05:30:23 05:37:32 29° 81° (E) 05:44:41 435.215
KKS-1 27 Aug 05:34:54 05:35:47 10° 272° (W) 05:36:41 437.445
RS-15 27 Aug 05:37:39 05:47:49 30° 346° (NNW) 05:58:17 29.354- 29.394
PHONESAT 2.4 27 Aug 05:37:47 05:40:33 34° 189° (S) 05:43:19 2401.200-2431.200
AO-85 27 Aug 05:50:30 05:55:44 63° 121° (ESE) 06:00:42 145.980
Cosmos 2491 27 Aug 06:09:22 06:18:10 75° 266° (W) 06:26:58 435.465 / 435.565
Cubesat XI-IV 27 Aug 06:12:19 06:16:05 19° 92° (E) 06:19:49 437.490
Cosmos 2504 27 Aug 06:13:22 06:18:26 18° 78° (ENE) 06:23:20 435.465 / 435.565
STRAND 1 27 Aug 06:15:08 06:19:14 25° 64° (ENE) 06:23:20 437.568
CUTE-I 27 Aug 06:24:00 06:28:19 25° 94° (E) 06:32:37 437.470
GOMX 1 27 Aug 06:26:24 06:31:05 29° 93° (E) 06:35:35 467.674
NOAA 15 27 Aug 06:27:18 06:32:06 33° 96° (E) 06:36:52 137.62
DOVE 4 27 Aug 06:37:42 06:40:46 16° 88° (E) 06:43:44 437.250
HORYU 2 27 Aug 06:42:42 06:46:53 42° 290° (WNW) 06:51:01 437.375
BRITE-PL 27 Aug 06:46:05 06:51:50 87° 103° (ESE) 06:57:27 437.365/2234.400
AO-7 27 Aug 06:48:38 06:55:10 27° 308° (NW) 07:01:40 29.400- 29.500
CUBESAT XI-V 27 Aug 06:53:16 06:54:26 11° 273° (W) 06:55:35 437.345
NOAA 18 27 Aug 06:57:44 07:02:56 43° 99° (E) 07:08:06 137.9125
SO-50 27 Aug 07:03:09 07:06:09 17° 34° (NE) 07:09:07 436.795
PHONESAT 2.4 27 Aug 07:14:46 07:16:25 14° 205° (SSW) 07:18:05 2401.200-2431.200
CINEMA 3 27 Aug 07:24:39 07:25:57 11° 87° (E) 07:27:14 145.822/145.860
YUBILEINY 27 Aug 07:24:51 07:33:37 67° 282° (WNW) 07:42:26 435.215
LilacSat-2 27 Aug 07:24:52 07:28:39 73° 284° (WNW) 07:32:23 437.200
AO-85 27 Aug 07:32:19 07:36:34 25° 318° (NW) 07:40:37 145.980
HO-68 27 Aug 07:41:38 07:46:55 21° 91° (E) 07:52:08 435.675
Cubesat XI-IV 27 Aug 07:51:18 07:56:32 59° 289° (WNW) 08:01:44 437.490
STRAND 1 27 Aug 07:53:18 07:58:09 44° 261° (W) 08:03:03 437.568
RS-15 27 Aug 07:54:34 08:05:18 33° 21° (NNE) 08:16:03 29.354- 29.394
SEEDS 27 Aug 07:59:02 08:01:08 13° 90° (E) 08:03:14 437.485
Cosmos 2504 27 Aug 08:02:16 08:10:46 88° 97° (E) 08:18:42 435.465 / 435.565
CUTE-I 27 Aug 08:03:31 08:08:34 46° 291° (WNW) 08:13:37 437.470
GOMX 1 27 Aug 08:04:09 08:09:15 41° 291° (WNW) 08:14:08 467.674
NOAA 15 27 Aug 08:07:05 08:11:51 35° 294° (WNW) 08:16:37 137.62
Cosmos 2491 27 Aug 08:08:57 08:13:24 15° 287° (WNW) 08:17:51 435.465 / 435.565
DOVE 4 27 Aug 08:13:54 08:18:59 64° 286° (WNW) 08:23:46 437.250
CANX-2 27 Aug 08:17:53 08:21:46 34° 97° (E) 08:25:40 2200.000
ISS 27 Aug 08:20:03 08:21:48 14° 132° (SE) 08:23:35 145.825
PRISM 27 Aug 08:23:11 08:27:06 47° 71° (ENE) 08:31:04 437.425
CUTE 1.7 + AOD 2 27 Aug 08:24:06 08:28:00 35° 97° (E) 08:31:54 437.475
BRITE-PL 27 Aug 08:26:06 08:29:30 17° 301° (WNW) 08:32:55 437.365/2234.400
AAUSAT CUBESAT 2 27 Aug 08:31:27 08:34:09 17° 92° (E) 08:36:52 437.432
COMPASS 1 27 Aug 08:38:18 08:41:47 25° 95° (E) 08:45:14 437.405
NOAA 18 27 Aug 08:38:46 08:43:24 29° 297° (WNW) 08:48:01 137.9125
SO-50 27 Aug 08:42:42 08:47:21 86° 53° (NE) 08:51:51 436.795
AIST 1 27 Aug 08:43:04 08:46:09 19° 86° (E) 08:49:16
CINEMA 3 27 Aug 08:59:08 09:03:43 74° 285° (WNW) 09:08:03 145.822/145.860
UNISAT 6 27 Aug 09:03:08 09:05:55 16° 62° (ENE) 09:08:40 437.425
Oscar 11 27 Aug 09:08:37 09:11:31 17° 92° (E) 09:14:24 145.826/435.025
FUNcube-1 27 Aug 09:15:17 09:18:09 18° 92° (E) 09:21:01 145.935
UWE-3 27 Aug 09:19:56 09:23:46 33° 97° (E) 09:27:32 435.000/436.395/437.385
CUBEBUG 2 27 Aug 09:20:55 09:25:06 52° 100° (E) 09:29:10 437.445
YUBILEINY 27 Aug 09:27:48 09:32:25 15° 306° (NW) 09:37:04 435.215
HO-68 27 Aug 09:28:08 09:35:19 76° 290° (WNW) 09:42:26 435.675
SEEDS 27 Aug 09:33:04 09:37:11 56° 287° (WNW) 09:41:19 437.485
CUSAT 1 27 Aug 09:34:36 09:40:06 31° 71° (ENE) 09:46:35 437.405
ZACube-1 27 Aug 09:35:47 09:39:33 32° 96° (E) 09:43:16 437.345
ANTELSAT 27 Aug 09:38:31 09:42:39 34° 69° (ENE) 09:46:43 437.575/2403.000
BEESAT 2 27 Aug 09:40:47 09:43:19 17° 111° (ESE) 09:45:52 435.950
CANX-2 27 Aug 09:54:09 09:57:27 22° 294° (WNW) 10:00:45 2200.000
ISS 27 Aug 09:54:34 09:57:51 84° 329° (NNW) 10:01:10 145.825
BEESAT 3 27 Aug 09:58:32 10:02:17 48° 119° (ESE) 10:06:06 437.485
Cosmos 2504 27 Aug 09:59:15 10:05:07 21° 297° (WNW) 10:10:46 435.465 / 435.565
PRISM 27 Aug 10:00:13 10:02:40 15° 268° (W) 10:05:09 437.425
CUTE 1.7 + AOD 2 27 Aug 10:00:22 10:03:39 22° 294° (WNW) 10:06:56 437.475
AAUSAT CUBESAT 2 27 Aug 10:05:53 10:09:51 44° 288° (WNW) 10:13:49 437.432
RS-15 27 Aug 10:08:06 10:20:30 71° 50° (NE) 10:32:43 29.354- 29.394
TIGRISAT 27 Aug 10:09:06 10:13:40 66° 74° (ENE) 10:18:10 435.000
COMPASS 1 27 Aug 10:13:41 10:17:20 30° 291° (WNW) 10:20:59 437.405
DELFI C3 27 Aug 10:14:05 10:17:47 35° 97° (E) 10:21:29 145.870
AIST 1 27 Aug 10:19:23 10:23:27 38° 284° (WNW) 10:27:35
DUCHIFAT 1 27 Aug 10:22:03 10:24:08 14° 61° (ENE) 10:26:14 145.980
QB50P2 27 Aug 10:23:16 10:25:59 17° 63° (ENE) 10:28:42 145.880/145.840
SO-50 27 Aug 10:25:38 10:27:04 11° 253° (WSW) 10:28:29 436.795
POLYITAN 1 27 Aug 10:25:45 10:28:30 17° 63° (ENE) 10:31:15 437.675
DANDE 27 Aug 10:26:23 10:30:57 29° 74° (ENE) 10:36:37 436.750
HUMSAT D 27 Aug 10:26:53 10:30:14 24° 95° (E) 10:33:35 437.325/437.525
NANOSAT C BR1 27 Aug 10:34:31 10:37:33 19° 64° (ENE) 10:40:35 145.865
UNISAT 6 27 Aug 10:37:37 10:42:11 61° 259° (W) 10:46:40 437.425
Oscar 11 27 Aug 10:43:46 10:47:53 45° 289° (WNW) 10:51:59 145.826/435.025
FUNcube-1 27 Aug 10:50:42 10:54:36 39° 289° (WNW) 10:58:26 145.935
PCSat 27 Aug 10:54:48 10:57:28 14° 103° (ESE) 11:00:09 145.827
UWE-3 27 Aug 10:56:48 11:00:03 22° 294° (WNW) 11:03:16 435.000/436.395/437.385
CUBEBUG 2 27 Aug 10:58:46 11:01:17 16° 298° (WNW) 11:03:46 437.445
ESTCUBE 1 27 Aug 11:01:56 11:02:35 10° 88° (E) 11:03:13 437.505/2401.250
Cosmos 2499 27 Aug 11:11:33 11:17:07 21° 81° (E) 11:22:26 435.465 / 435.565
ZACube-1 27 Aug 11:12:24 11:15:42 23° 294° (WNW) 11:18:57 437.345
ANTELSAT 27 Aug 11:15:32 11:19:23 26° 265° (W) 11:23:11 437.575/2403.000
CUSAT 1 27 Aug 11:16:08 11:22:15 54° 265° (W) 11:29:36 437.405
QB50P1 27 Aug 11:16:54 11:21:04 54° 73° (ENE) 11:25:16 145.935-145.965
BEESAT 2 27 Aug 11:16:55 11:20:46 49° 309° (NW) 11:24:40 435.950
HO-68 27 Aug 11:17:36 11:21:54 17° 310° (NW) 11:26:10 435.675
BUGSAT 1 27 Aug 11:17:46 11:21:06 23° 66° (ENE) 11:24:25 437.445
JAS-2 27 Aug 11:22:19 11:26:56 33° 65° (ENE) 11:31:51 435.910
POPSAT HIP 1 27 Aug 11:26:47 11:31:02 69° 74° (ENE) 11:35:19 437.405
ISS 27 Aug 11:31:52 11:34:41 25° 348° (NNW) 11:37:29 145.825
BEESAT 3 27 Aug 11:37:14 11:40:12 20° 318° (NW) 11:43:13 437.485
GONETS M04 27 Aug 11:40:26 11:48:33 45° 87° (E) 11:56:43
AIST 2 27 Aug 11:48:19 11:50:52 16° 111° (ESE) 11:53:25 435.215
TIGRISAT 27 Aug 11:48:28 11:50:46 14° 270° (W) 11:53:02 435.000
DELFI C3 27 Aug 11:49:29 11:52:24 20° 294° (WNW) 11:55:20 145.870
DUCHIFAT 1 27 Aug 11:55:05 11:59:18 65° 258° (WSW) 12:03:33 145.980
VELOX 1 27 Aug 11:57:13 12:00:39 21° 93° (E) 12:04:04 145.980
QB50P2 27 Aug 11:57:14 12:01:24 51° 260° (W) 12:05:35 145.880/145.840
POLYITAN 1 27 Aug 11:59:46 12:03:56 50° 261° (W) 12:08:07 437.675
CUBEBUG 1 27 Aug 12:00:09 12:03:59 28° 95° (E) 12:07:47 437.445
HUMSAT D 27 Aug 12:02:19 12:05:52 29° 291° (WNW) 12:09:24 437.325/437.525
DANDE 27 Aug 12:08:41 12:13:43 44° 264° (W) 12:20:12 436.750
NANOSAT C BR1 27 Aug 12:08:55 12:12:59 43° 261° (W) 12:17:04 145.865
AUBIESAT-1 27 Aug 12:13:47 12:17:53 63° 107° (ESE) 12:21:38 437.475
DX 1 27 Aug 12:15:56 12:19:24 22° 94° (E) 12:22:50 434.975-435.025
Oscar 19 27 Aug 12:17:11 12:21:08 22° 62° (ENE) 12:25:05 437.125/150
M-CUBED/EXP-1 PRIME 27 Aug 12:19:03 12:23:18 89° 108° (ESE) 12:27:09 437.505
SPROUT 27 Aug 12:20:13 12:23:18 19° 92° (E) 12:26:22 437.525
RS-15 27 Aug 12:21:22 12:32:15 39° 254° (WSW) 12:42:59 29.354- 29.394
PCSat 27 Aug 12:34:40 12:40:05 86° 302° (WNW) 12:45:33 145.827
ESTCUBE 1 27 Aug 12:35:25 12:39:58 83° 287° (WNW) 12:44:31 437.505/2401.250
AO-85 27 Aug 12:42:10 12:44:30 14° 32° (NNE) 12:46:44 145.980
AISAT 27 Aug 12:45:25 12:49:54 72° 102° (ESE) 12:54:20 437.250
50 SAT 27 Aug 12:45:31 12:49:11 75° 102° (ESE) 12:52:50 437.505
BUGSAT 1 27 Aug 12:52:21 12:56:16 35° 263° (W) 13:00:12 437.445
QB50P1 27 Aug 12:54:49 12:57:11 14° 269° (W) 12:59:33 145.935-145.965
UKube-1 27 Aug 12:56:38 13:00:51 46° 100° (E) 13:05:01 .
Cosmos 2499 27 Aug 13:01:14 13:09:26 79° 279° (W) 13:17:02 435.465 / 435.565
POPSAT HIP 1 27 Aug 13:05:50 13:07:16 11° 271° (W) 13:08:43 437.405
JAS-2 27 Aug 13:07:24 13:12:03 33° 265° (W) 13:16:59 435.910
ISS 27 Aug 13:09:09 13:11:52 23° 8° (N) 13:14:35 145.825
Gurwin Techsat 1B 27 Aug 13:23:24 13:28:20 41° 68° (ENE) 13:33:17 435.225
AIST 2 27 Aug 13:24:53 13:28:55 54° 308° (NW) 13:33:00 435.215
ITAMSAT 1 27 Aug 13:31:29 13:34:39 17° 59° (ENE) 13:37:49 435.822/435.867
VELOX 1 27 Aug 13:33:05 13:37:15 39° 290° (WNW) 13:41:23 145.980
CUBEBUG 1 27 Aug 13:36:22 13:40:14 30° 292° (WNW) 13:44:04 437.445
GONETS M04 27 Aug 13:37:07 13:45:21 44° 288° (WNW) 13:53:43
AUBIESAT-1 27 Aug 13:49:39 13:51:46 14° 306° (NW) 13:53:48 437.475
DX 1 27 Aug 13:51:38 13:55:41 36° 291° (WNW) 13:59:41 434.975-435.025
Oscar 19 27 Aug 13:55:04 14:00:05 52° 260° (W) 14:05:10 437.125/150
SPROUT 27 Aug 13:55:24 13:59:26 40° 289° (WNW) 14:03:25 437.525
M-CUBED/EXP-1 PRIME 27 Aug 13:55:58 13:57:01 11° 308° (NW) 13:58:04 437.505
AO-7 27 Aug 14:04:26 14:11:27 31° 54° (NE) 14:18:26 29.400- 29.500
ESTCUBE 1 27 Aug 14:15:21 14:16:01 10° 302° (WNW) 14:16:40 437.505/2401.250
TISAT 1 27 Aug 14:15:25 14:19:39 74° 103° (ESE) 14:23:50 437.305
PCSat 27 Aug 14:20:34 14:24:18 18° 322° (NW) 14:28:02 145.827
AO-85 27 Aug 14:21:27 14:25:48 76° 54° (NE) 14:29:48 145.980
O/OREOS (USA 219) 27 Aug 14:22:18 14:26:46 80° 112° (ESE) 14:31:19 437.305
AISAT 27 Aug 14:23:35 14:25:47 14° 300° (WNW) 14:27:59 437.250
UKube-1 27 Aug 14:33:32 14:36:33 19° 297° (WNW) 14:39:33 .
ITUPSAT 1 27 Aug 14:41:51 14:45:54 27° 95° (E) 14:49:55 437.325
ISS 27 Aug 14:45:31 14:48:47 62° 27° (NNE) 14:52:03 145.825
Cosmos 2499 27 Aug 14:59:08 15:03:45 16° 300° (WNW) 15:08:13 435.465 / 435.565
Gurwin Techsat 1B 27 Aug 15:03:52 15:08:23 28° 265° (W) 15:12:56 435.225
AIST 2 27 Aug 15:07:24 15:08:21 11° 329° (NNW) 15:09:16 435.215
ITAMSAT 1 27 Aug 15:08:20 15:13:31 75° 258° (WSW) 15:18:43 435.822/435.867
SWISSCUBE 27 Aug 15:14:38 15:19:23 63° 102° (ESE) 15:24:06 437.505
BEESAT 27 Aug 15:31:48 15:36:35 84° 103° (ESE) 15:41:21 436.000
YUBILEINY 27 Aug 15:38:25 15:43:12 15° 55° (NE) 15:47:56 435.215
KKS-1 27 Aug 15:45:14 15:47:31 14° 90° (E) 15:49:45 437.445
MOZHAYETS 4 27 Aug 15:48:12 15:51:35 20° 93° (E) 15:54:58
TISAT 1 27 Aug 15:53:09 15:54:42 12° 300° (WNW) 15:56:15 437.305
AO-7 27 Aug 15:55:17 16:03:37 70° 254° (WSW) 16:11:58 29.400- 29.500
O/OREOS (USA 219) 27 Aug 16:04:25 16:06:48 14° 312° (NW) 16:09:12 437.305
AO-85 27 Aug 16:04:34 16:05:27 11° 254° (WSW) 16:06:20 145.980
HORYU 2 27 Aug 16:06:18 16:09:49 23° 65° (ENE) 16:13:21 437.375
ITUPSAT 1 27 Aug 16:19:27 16:23:47 36° 292° (WNW) 16:28:07 437.325
STARS 27 Aug 16:21:24 16:24:08 16° 92° (E) 16:26:51 437.465
BRITE-PL 27 Aug 16:22:15 16:25:15 16° 58° (ENE) 16:28:22 437.365/2234.400
ISS 27 Aug 16:22:33 16:24:59 19° 225° (SW) 16:27:25 145.825
NOAA 18 27 Aug 16:47:58 16:51:06 16° 56° (ENE) 16:54:14 137.9125
SWISSCUBE 27 Aug 16:53:42 16:56:41 17° 299° (WNW) 16:59:40 437.505
CUBESAT XI-V 27 Aug 17:07:44 17:11:00 18° 91° (E) 17:14:15 437.345
BEESAT 27 Aug 17:11:33 17:13:41 13° 302° (WNW) 17:15:50 436.000
Cosmos 2491 27 Aug 17:17:37 17:24:31 27° 81° (E) 17:31:27 435.465 / 435.565
KKS-1 27 Aug 17:20:03 17:24:30 62° 287° (WNW) 17:28:52 437.445
MOZHAYETS 4 27 Aug 17:24:37 17:28:57 43° 289° (WNW) 17:33:17
YUBILEINY 27 Aug 17:33:09 17:41:56 69° 79° (E) 17:50:36 435.215
GOMX 1 27 Aug 17:35:21 17:39:57 35° 67° (ENE) 17:44:47 467.674
Cubesat XI-IV 27 Aug 17:35:24 17:40:16 37° 67° (ENE) 17:45:09 437.490
HORYU 2 27 Aug 17:42:02 17:46:11 37° 262° (W) 17:50:20 437.375
DOVE 4 27 Aug 17:43:48 17:47:40 21° 63° (ENE) 17:51:35 437.250
CUTE-I 27 Aug 17:47:03 17:52:08 47° 69° (ENE) 17:57:14 437.470
NOAA 15 27 Aug 17:48:43 17:53:53 62° 72° (ENE) 17:59:07 137.62
Cosmos 2504 27 Aug 17:53:45 18:00:10 32° 69° (ENE) 18:06:25 435.465 / 435.565
AO-7 27 Aug 17:54:12 17:57:51 13° 274° (W) 18:01:32 29.400- 29.500
BEESAT 2 27 Aug 17:56:12 17:59:15 20° 42° (NE) 18:02:18 435.950
STARS 27 Aug 17:56:31 18:00:47 51° 288° (WNW) 18:05:02 437.465
BRITE-PL 27 Aug 17:58:08 18:02:58 75° 258° (WSW) 18:08:17 437.365/2234.400
LilacSat-2 27 Aug 18:07:50 18:11:39 65° 75° (ENE) 18:15:27 437.200
HO-68 27 Aug 18:12:52 18:17:57 21° 54° (NE) 18:23:03 435.675
BEESAT 3 27 Aug 18:14:11 18:18:04 47° 51° (NE) 18:21:53 437.485
NOAA 18 27 Aug 18:25:27 18:31:01 88° 254° (WSW) 18:36:35 137.9125
CINEMA 3 27 Aug 18:26:34 18:29:33 16° 61° (ENE) 18:32:32 145.822/145.860
CUBESAT XI-V 27 Aug 18:44:06 18:48:39 50° 288° (WNW) 18:53:12 437.345
SEEDS 27 Aug 18:53:07 18:54:48 12° 61° (ENE) 18:56:28 437.485
Cosmos 2491 27 Aug 19:11:54 19:20:35 69° 282° (WNW) 19:29:21 435.465 / 435.565
CANX-2 27 Aug 19:12:09 19:15:49 30° 69° (ENE) 19:19:29 2200.000
GOMX 1 27 Aug 19:13:25 19:17:59 33° 266° (W) 19:22:49 467.674
Cubesat XI-IV 27 Aug 19:15:41 19:20:23 31° 264° (W) 19:25:05 437.490
CUTE 1.7 + AOD 2 27 Aug 19:18:15 19:21:56 30° 69° (ENE) 19:25:37 437.475
DOVE 4 27 Aug 19:19:48 19:24:53 58° 260° (W) 19:30:08 437.250
AAUSAT CUBESAT 2 27 Aug 19:23:53 19:26:06 14° 63° (ENE) 19:28:19 437.432
CUTE-I 27 Aug 19:28:08 19:32:24 24° 267° (W) 19:36:42 437.470
NOAA 15 27 Aug 19:30:34 19:34:06 18° 269° (W) 19:37:39 137.62
COMPASS 1 27 Aug 19:30:50 19:33:56 21° 66° (ENE) 19:37:03 437.405
YUBILEINY 27 Aug 19:31:00 19:37:57 27° 279° (W) 19:44:51 435.215
BEESAT 2 27 Aug 19:33:27 19:37:21 50° 240° (WSW) 19:41:13 435.950
PCSat 27 Aug 19:38:27 19:42:31 21° 40° (NE) 19:46:34 145.827
Cosmos 2504 27 Aug 19:46:53 19:53:46 48° 270° (W) 20:00:33 435.465 / 435.565
BEESAT 3 27 Aug 19:52:44 19:55:22 17° 248° (WSW) 19:58:01 437.485
HO-68 27 Aug 19:57:35 20:04:48 88° 254° (WSW) 20:12:03 435.675
CINEMA 3 27 Aug 20:01:05 20:06:06 73° 258° (WSW) 20:11:06 145.822/145.860
STRAND 1 27 Aug 20:01:52 20:06:53 55° 100° (E) 20:11:53 437.568
Oscar 11 27 Aug 20:05:11 20:08:00 17° 64° (ENE) 20:10:50 145.826/435.025
AIST 2 27 Aug 20:06:51 20:10:06 21° 42° (NE) 20:13:21 435.215
NOAA 18 27 Aug 20:10:13 20:12:25 12° 272° (W) 20:14:37 137.9125
FUNcube-1 27 Aug 20:12:13 20:15:23 19° 65° (ENE) 20:18:29 145.935
UWE-3 27 Aug 20:17:54 20:22:03 35° 70° (ENE) 20:26:08 435.000/436.395/437.385
CUBEBUG 2 27 Aug 20:19:43 20:24:17 55° 73° (ENE) 20:28:46 437.445
AIST 1 27 Aug 20:24:22 20:28:44 58° 79° (ENE) 20:33:03
SEEDS 27 Aug 20:25:48 20:29:56 69° 259° (WSW) 20:34:06 437.485
ZACube-1 27 Aug 20:32:44 20:36:41 32° 69° (ENE) 20:40:36 437.345
CANX-2 27 Aug 20:48:12 20:51:40 25° 266° (W) 20:55:09 2200.000
CUTE 1.7 + AOD 2 27 Aug 20:54:20 20:57:46 24° 266° (W) 21:01:14 437.475
AAUSAT CUBESAT 2 27 Aug 20:57:06 21:01:07 56° 260° (W) 21:05:11 437.432
DELFI C3 27 Aug 21:01:35 21:04:51 26° 68° (ENE) 21:08:08 145.870
COMPASS 1 27 Aug 21:05:29 21:09:17 35° 263° (W) 21:13:06 437.405
Cosmos 2491 27 Aug 21:14:37 21:19:21 15° 305° (NW) 21:24:08 435.465 / 435.565
HUMSAT D 27 Aug 21:19:48 21:22:59 22° 66° (ENE) 21:26:09 437.325/437.525
PCSat 27 Aug 21:21:07 21:26:34 80° 241° (WSW) 21:31:59 145.827
AUBIESAT-1 27 Aug 21:28:14 21:30:42 14° 55° (NE) 21:33:10 437.475
M-CUBED/EXP-1 PRIME 27 Aug 21:32:58 21:36:15 19° 57° (ENE) 21:39:32 437.505
PRISM 27 Aug 21:38:04 21:42:14 63° 102° (ESE) 21:46:22 437.425
Oscar 11 27 Aug 21:39:35 21:43:46 49° 261° (W) 21:47:58 145.826/435.025
STRAND 1 27 Aug 21:41:55 21:45:40 21° 298° (WNW) 21:49:25 437.568
AIST 2 27 Aug 21:44:47 21:48:52 52° 240° (WSW) 21:52:55 435.215
FUNcube-1 27 Aug 21:47:04 21:51:19 44° 262° (W) 21:55:31 145.935
GONETS M04 27 Aug 21:48:46 21:55:40 24° 62° (ENE) 22:02:32
HO-68 27 Aug 21:49:11 21:53:28 16° 272° (W) 21:57:47 435.675
UWE-3 27 Aug 21:54:50 21:58:34 24° 266° (W) 22:02:14 435.000/436.395/437.385
CUBEBUG 2 27 Aug 21:58:13 22:01:12 17° 269° (W) 22:04:09 437.445
TIGRISAT 27 Aug 22:01:37 22:02:51 11° 88° (E) 22:04:03 435.000
ESTCUBE 1 27 Aug 22:02:25 22:04:24 13° 60° (ENE) 22:06:23 437.505/2401.250
AIST 1 27 Aug 22:03:40 22:05:48 13° 276° (W) 22:07:55
ZACube-1 27 Aug 22:09:18 22:13:00 25° 265° (W) 22:16:39 437.345
UNISAT 6 27 Aug 22:28:23 22:31:52 23° 94° (E) 22:35:18 437.425
DELFI C3 27 Aug 22:36:20 22:39:38 25° 265° (W) 22:42:58 145.870
CUSAT 1 27 Aug 22:44:11 22:44:30 10° 81° (E) 22:44:48 437.405
Cosmos 2499 27 Aug 22:50:47 22:57:17 37° 72° (ENE) 23:03:47 435.465 / 435.565
O/OREOS (USA 219) 27 Aug 22:51:59 22:55:45 24° 55° (NE) 22:59:30 437.305
HUMSAT D 27 Aug 22:54:37 22:58:25 34° 263° (W) 23:02:13 437.325/437.525
VELOX 1 27 Aug 22:55:57 22:59:30 24° 65° (ENE) 23:03:03 145.980
CUBEBUG 1 27 Aug 22:57:28 23:01:15 29° 67° (ENE) 23:05:04 437.445
SO-50 27 Aug 22:59:06 23:02:38 20° 111° (ESE) 23:06:10 436.795
AUBIESAT-1 27 Aug 22:59:53 23:04:32 82° 253° (WSW) 23:09:11 437.475
ANTELSAT 27 Aug 23:04:49 23:09:05 57° 101° (E) 23:13:15 437.575/2403.000
M-CUBED/EXP-1 PRIME 27 Aug 23:05:41 23:10:18 61° 254° (WSW) 23:14:59 437.505
PCSat 27 Aug 23:07:34 23:09:03 11° 259° (WSW) 23:10:30 145.827
DX 1 27 Aug 23:12:53 23:16:25 24° 65° (ENE) 23:19:58 434.975-435.025
PRISM 27 Aug 23:14:56 23:17:02 14° 299° (WNW) 23:19:08 437.425
SPROUT 27 Aug 23:15:24 23:18:27 19° 64° (ENE) 23:21:30 437.525
50 SAT 27 Aug 23:24:06 23:27:26 38° 72° (ENE) 23:30:48 437.505
TIGRISAT 27 Aug 23:35:45 23:40:02 69° 286° (WNW) 23:44:15 435.000
ESTCUBE 1 27 Aug 23:36:07 23:40:36 77° 259° (WSW) 23:45:06 437.505/2401.250
DUCHIFAT 1 27 Aug 23:38:40 23:41:29 17° 92° (E) 23:44:16 145.980
QB50P2 27 Aug 23:41:06 23:44:27 22° 94° (E) 23:47:46 145.880/145.840
DANDE 27 Aug 23:41:34 23:42:13 11° 87° (E) 23:42:54 436.750
POLYITAN 1 27 Aug 23:43:37 23:46:58 22° 94° (E) 23:50:17 437.675
AISAT 27 Aug 23:43:50 23:48:17 76° 75° (ENE) 23:52:47 437.250
GONETS M04 27 Aug 23:44:41 23:53:35 81° 265° (W) 00:02:25
NANOSAT C BR1 27 Aug 23:51:59 23:55:31 26° 95° (E) 23:59:01 145.865
UKube-1 27 Aug 23:52:21 23:56:29 47° 71° (ENE) 00:00:40 .
UNISAT 6 28 Aug 00:04:48 00:08:38 32° 292° (WNW) 00:12:26 437.425
JAS-2 28 Aug 00:12:18 00:18:22 32° 95° (E) 00:24:54 435.910
CUSAT 1 28 Aug 00:23:04 00:25:49 32° 289° (WNW) 00:29:12 437.405
O/OREOS (USA 219) 28 Aug 00:30:59 00:35:18 41° 253° (WSW) 00:39:37 437.305
VELOX 1 28 Aug 00:31:40 00:35:45 36° 262° (W) 00:39:54 145.980
BUGSAT 1 28 Aug 00:32:40 00:36:16 28° 96° (E) 00:39:48 437.445
CUBEBUG 1 28 Aug 00:33:39 00:37:28 29° 264° (W) 00:41:21 437.445
RS-15 28 Aug 00:34:15 00:44:15 37° 105° (ESE) 00:54:40 29.354- 29.394
QB50P1 28 Aug 00:35:39 00:39:54 83° 103° (ESE) 00:44:06 145.935-145.965
SO-50 28 Aug 00:37:57 00:42:45 58° 309° (NW) 00:47:30 436.795
ANTELSAT 28 Aug 00:42:55 00:45:20 15° 298° (WNW) 00:47:43 437.575/2403.000
Cosmos 2499 28 Aug 00:43:56 00:50:23 40° 272° (W) 00:56:54 435.465 / 435.565
POPSAT HIP 1 28 Aug 00:45:42 00:49:56 78° 285° (WNW) 00:54:07 437.405
DX 1 28 Aug 00:48:27 00:52:26 34° 263° (W) 00:56:27 434.975-435.025
SWISSCUBE 28 Aug 00:48:33 00:50:06 11° 57° (ENE) 00:51:39 437.505
SPROUT 28 Aug 00:49:57 00:54:05 44° 261° (W) 00:58:14 437.525
50 SAT 28 Aug 00:59:16 01:01:12 14° 268° (W) 01:03:08 437.505
BEESAT 28 Aug 01:04:25 01:07:02 15° 60° (ENE) 01:09:41 436.000
TISAT 1 28 Aug 01:08:04 01:12:17 66° 74° (ENE) 01:16:31 437.305
DUCHIFAT 1 28 Aug 01:13:24 01:17:23 43° 289° (WNW) 01:21:20 145.980
QB50P2 28 Aug 01:16:30 01:20:19 34° 291° (WNW) 01:24:07 145.880/145.840
POLYITAN 1 28 Aug 01:19:02 01:22:51 33° 291° (WNW) 01:26:36 437.675
DANDE 28 Aug 01:22:49 01:24:42 17° 291° (WNW) 01:26:44 436.750
AISAT 28 Aug 01:23:57 01:25:17 11° 271° (W) 01:26:37 437.250
NANOSAT C BR1 28 Aug 01:27:35 01:31:14 29° 292° (WNW) 01:34:51 145.865
UKube-1 28 Aug 01:29:59 01:32:47 17° 268° (W) 01:35:38 .
Gurwin Techsat 1B 28 Aug 01:39:31 01:42:09 14° 88° (E) 01:44:47 435.225
GONETS M04 28 Aug 01:43:49 01:48:55 17° 285° (WNW) 01:54:00
ITUPSAT 1 28 Aug 01:49:54 01:54:16 37° 68° (ENE) 01:58:38 437.325
JAS-2 28 Aug 01:57:01 02:03:32 54° 290° (WNW) 02:10:44 435.910
Oscar 19 28 Aug 02:04:53 02:09:57 49° 100° (E) 02:14:58 437.125/150
BUGSAT 1 28 Aug 02:08:07 02:11:33 26° 293° (WNW) 02:14:58 437.445
QB50P1 28 Aug 02:14:03 02:15:01 11° 301° (WNW) 02:15:58 145.935-145.965
SO-50 28 Aug 02:21:50 02:24:14 14° 330° (NNW) 02:26:37 436.795
SWISSCUBE 28 Aug 02:22:22 02:27:08 86° 72° (ENE) 02:31:55 437.505
BEESAT 28 Aug 02:39:30 02:44:15 72° 257° (WSW) 02:49:02 436.000
RS-15 28 Aug 02:44:10 02:55:47 73° 309° (NW) 03:08:04 29.354- 29.394
KKS-1 28 Aug 02:44:40 02:47:31 17° 62° (ENE) 02:50:22 437.445
TISAT 1 28 Aug 02:46:46 02:48:22 12° 271° (W) 02:49:58 437.305
MOZHAYETS 4 28 Aug 02:51:33 02:55:10 24° 66° (ENE) 02:58:47
PHONESAT 2.4 28 Aug 02:54:13 02:56:52 28° 166° (SSE) 02:59:31 2401.200-2431.200
Gurwin Techsat 1B 28 Aug 03:17:23 03:22:44 80° 286° (WNW) 03:28:02 435.225
STARS 28 Aug 03:19:27 03:22:33 19° 63° (ENE) 03:25:38 437.465
ITAMSAT 1 28 Aug 03:19:50 03:24:32 34° 97° (E) 03:29:13 435.822/435.867
Cosmos 2491 28 Aug 03:25:34 03:30:14 15° 54° (NE) 03:34:52 435.465 / 435.565
ITUPSAT 1 28 Aug 03:28:15 03:32:11 25° 265° (W) 03:36:08 437.325
Oscar 19 28 Aug 03:44:53 03:48:57 24° 297° (WNW) 03:53:01 437.125/150
JAS-2 28 Aug 03:45:34 03:47:20 11° 309° (NW) 03:49:08 435.910
AO-7 28 Aug 03:55:25 04:02:59 37° 97° (E) 04:10:30 29.400- 29.500
SWISSCUBE 28 Aug 04:04:31 04:05:33 11° 272° (W) 04:06:35 437.505
CUBESAT XI-V 28 Aug 04:12:34 04:16:03 22° 65° (ENE) 04:19:35 437.345
